Location: Cahas Mountain Overlook
(37.0833°N, 80.1000°W)
Time: 22:08:20
(UTC-05:00)

ISS - Pass Details

Date: 26 January 2026
Orbit: 413 x 428 km, 51.6° (Epoch: 18 February)

Event Time Altitude Azimuth Distance (km) Brightness Sun altitude
Rises 18:11:30 0° 322° (NW) 2,362 0.3 -6.9°
Reaches altitude 10° 18:14:28 10° 351° (N) 1,500 -1.0 -7.5°
Maximum altitude 18:16:13 13° 22° (NNE) 1,310 -1.6 -7.8°
Drops below altitude 10° 18:17:58 10° 54° (NE) 1,503 -1.5 -8.1°
Enters shadow 18:18:02 10° 55° (NE) 1,518 -1.5 -8.2°
